N2STN KATL-KOPF

Flight info

Callsign N2STN
Flight time 3h 1m
Altitude 5000
Route VRSTY3 NOKIE KRVUR BRKWL INPIN/N0179F060 RSW PALMZ2
Aircraft S22T/L-SDGRY/S

Departure

Time 2026-05-08 12:40
Airport Hartsfield Jackson Atlanta International Airport (KATL)

Arrival

Time 2026-05-08 15:41
Airport Miami-Opa Locka Executive Airport (KOPF)
Time Latitude Longitude Altitude Speed Heading
2026-05-08 12:21 33.64364 -84.42977 1031 ft 0 kts 133°
2026-05-08 12:30 33.64365 -84.42978 1031 ft 2 kts 133°
2026-05-08 12:30 33.64380 -84.43002 1031 ft 4 kts 115°
2026-05-08 12:30 33.64387 -84.43031 1031 ft 4 kts 83°
2026-05-08 12:31 33.64378 -84.43058 1031 ft 4 kts 36°
2026-05-08 12:31 33.64362 -84.43066 1031 ft 1 kts 359°
2026-05-08 12:31 33.64359 -84.43066 1031 ft 0 kts 359°
2026-05-08 12:35 33.64376 -84.43067 1031 ft 6 kts 359°
2026-05-08 12:35 33.64438 -84.43065 1031 ft 10 kts 28°
2026-05-08 12:35 33.64461 -84.42983 1031 ft 14 kts 88°
2026-05-08 12:35 33.64460 -84.42848 1030 ft 13 kts 87°
2026-05-08 12:36 33.64467 -84.42722 1030 ft 18 kts 79°
2026-05-08 12:36 33.64471 -84.42562 1030 ft 21 kts 87°
2026-05-08 12:36 33.64470 -84.42413 1030 ft 15 kts 90°
2026-05-08 12:36 33.64470 -84.42289 1030 ft 12 kts 84°
2026-05-08 12:37 33.64520 -84.42237 1030 ft 11 kts
2026-05-08 12:37 33.64542 -84.42239 1030 ft 0 kts 350°
2026-05-08 12:37 33.64545 -84.42240 1030 ft 2 kts 351°
2026-05-08 12:38 33.64589 -84.42242 1029 ft 10 kts 360°
2026-05-08 12:38 33.64672 -84.42240 1028 ft 0 kts
2026-05-08 12:38 33.64678 -84.42242 1028 ft 2 kts 324°
2026-05-08 12:38 33.64680 -84.42249 1028 ft 1 kts 276°
2026-05-08 12:39 33.64679 -84.42303 1029 ft 20 kts 268°
2026-05-08 12:39 33.64679 -84.42760 1032 ft 84 kts 270°
2026-05-08 12:39 33.64673 -84.43523 1266 ft 96 kts 269°
2026-05-08 12:39 33.64629 -84.44375 1606 ft 106 kts 265°
2026-05-08 12:40 33.64542 -84.45266 2023 ft 109 kts 263°
2026-05-08 12:40 33.64600 -84.46165 2438 ft 110 kts 288°
2026-05-08 12:40 33.64768 -84.47064 2859 ft 110 kts 284°
2026-05-08 12:40 33.64944 -84.47940 3271 ft 109 kts 287°
2026-05-08 12:41 33.65126 -84.48823 3704 ft 108 kts 286°
2026-05-08 12:41 33.65305 -84.49690 4141 ft 106 kts 286°
2026-05-08 12:41 33.65475 -84.50543 4587 ft 104 kts 285°
2026-05-08 12:41 33.65644 -84.51378 5088 ft 102 kts 284°
2026-05-08 12:42 33.65803 -84.52191 5518 ft 99 kts 283°
2026-05-08 12:42 33.65959 -84.52990 5942 ft 97 kts 283°
2026-05-08 12:42 33.66110 -84.53772 6376 ft 95 kts 282°
2026-05-08 12:42 33.66260 -84.54537 6781 ft 93 kts 282°
2026-05-08 12:43 33.66406 -84.55293 7209 ft 93 kts 282°
2026-05-08 12:43 33.66551 -84.56046 7633 ft 92 kts 282°
2026-05-08 12:43 33.66694 -84.56792 8064 ft 91 kts 282°
2026-05-08 12:43 33.66837 -84.57528 8516 ft 90 kts 282°
2026-05-08 12:44 33.66852 -84.58273 8972 ft 91 kts 264°
2026-05-08 12:44 33.66661 -84.59002 9427 ft 94 kts 250°
2026-05-08 12:44 33.66331 -84.59678 9885 ft 93 kts 250°
2026-05-08 12:44 33.66014 -84.60353 10310 ft 92 kts 250°
2026-05-08 12:45 33.65700 -84.61017 10732 ft 91 kts 250°
2026-05-08 12:45 33.65391 -84.61667 11161 ft 89 kts 251°
2026-05-08 12:45 33.65088 -84.62301 11603 ft 87 kts 252°
2026-05-08 12:45 33.64791 -84.62920 12053 ft 85 kts 252°
2026-05-08 12:46 33.64501 -84.63531 12487 ft 84 kts 253°
2026-05-08 12:46 33.64217 -84.64126 12943 ft 81 kts 253°
2026-05-08 12:46 33.63940 -84.64707 13406 ft 79 kts 254°
2026-05-08 12:46 33.63656 -84.65268 13879 ft 80 kts 250°
2026-05-08 12:47 33.63274 -84.65773 14305 ft 84 kts 243°
2026-05-08 12:47 33.62787 -84.66204 14717 ft 91 kts 234°
2026-05-08 12:47 33.62235 -84.66578 15132 ft 90 kts 234°
2026-05-08 12:47 33.61695 -84.66952 15546 ft 89 kts 234°
2026-05-08 12:48 33.61160 -84.67326 15954 ft 92 kts 234°
2026-05-08 12:48 33.60525 -84.67790 16005 ft 122 kts 229°
2026-05-08 12:48 33.59715 -84.68349 16006 ft 145 kts 226°
2026-05-08 12:48 33.58776 -84.68958 16005 ft 164 kts 220°
2026-05-08 12:49 33.57616 -84.69378 16004 ft 185 kts 207°
2026-05-08 12:49 33.56266 -84.69466 15999 ft 204 kts 192°
2026-05-08 12:49 33.54817 -84.69197 15997 ft 213 kts 186°
2026-05-08 12:49 33.53349 -84.68907 16000 ft 214 kts 187°
2026-05-08 12:50 33.51877 -84.68633 16001 ft 215 kts 187°
2026-05-08 12:50 33.50396 -84.68356 16005 ft 215 kts 186°
2026-05-08 12:50 33.48912 -84.68076 16005 ft 216 kts 186°
2026-05-08 12:50 33.47427 -84.67795 16006 ft 216 kts 186°
2026-05-08 12:51 33.45944 -84.67517 16008 ft 216 kts 186°
2026-05-08 12:51 33.43008 -84.66521 16015 ft 236 kts 165°
2026-05-08 12:51 33.41636 -84.65334 16020 ft 251 kts 147°
2026-05-08 12:52 33.40520 -84.63678 16018 ft 262 kts 127°
2026-05-08 12:52 33.38707 -84.59876 16016 ft 263 kts 126°
2026-05-08 12:52 33.37790 -84.57987 16016 ft 263 kts 126°
2026-05-08 12:53 33.36877 -84.56089 16014 ft 263 kts 126°
2026-05-08 12:53 33.35965 -84.54191 16016 ft 263 kts 126°
2026-05-08 12:53 33.35051 -84.52295 16013 ft 263 kts 126°
2026-05-08 12:53 33.34137 -84.50400 16013 ft 263 kts 126°
2026-05-08 12:54 33.33221 -84.48499 16006 ft 263 kts 126°
2026-05-08 12:54 33.32308 -84.46606 16009 ft 263 kts 126°
2026-05-08 12:54 33.31394 -84.44711 16004 ft 263 kts 126°
2026-05-08 12:54 33.30479 -84.42821 15996 ft 263 kts 126°
2026-05-08 12:55 33.29564 -84.40927 15995 ft 263 kts 126°
2026-05-08 12:55 33.28651 -84.39038 15986 ft 263 kts 126°
2026-05-08 12:55 33.27736 -84.37144 16028 ft 263 kts 126°
2026-05-08 12:55 33.26819 -84.35252 16030 ft 263 kts 126°
2026-05-08 12:56 33.25902 -84.33359 16027 ft 263 kts 126°
2026-05-08 12:56 33.24987 -84.31469 16022 ft 263 kts 126°
2026-05-08 12:56 33.24071 -84.29578 16012 ft 263 kts 126°
2026-05-08 12:56 33.23151 -84.27684 16013 ft 263 kts 126°
2026-05-08 12:57 33.22233 -84.25792 16008 ft 263 kts 126°
2026-05-08 12:57 33.21318 -84.23908 15998 ft 263 kts 126°
2026-05-08 12:57 33.20399 -84.22015 15998 ft 263 kts 126°
2026-05-08 12:57 33.19494 -84.20151 15990 ft 263 kts 126°
2026-05-08 12:58 33.18574 -84.18261 15988 ft 264 kts 126°
2026-05-08 12:58 33.17654 -84.16369 15983 ft 263 kts 126°
2026-05-08 12:58 33.16735 -84.14482 15977 ft 263 kts 126°
2026-05-08 12:58 33.15813 -84.12591 15971 ft 263 kts 126°
2026-05-08 12:59 33.14891 -84.10700 15964 ft 263 kts 126°
2026-05-08 12:59 33.13972 -84.08812 15959 ft 263 kts 126°
2026-05-08 12:59 33.13050 -84.06924 15954 ft 263 kts 126°
2026-05-08 12:59 33.12129 -84.05038 15944 ft 263 kts 126°
2026-05-08 13:00 33.11209 -84.03150 15943 ft 263 kts 126°
2026-05-08 13:00 33.10291 -84.01260 15946 ft 263 kts 126°
2026-05-08 13:00 33.09365 -83.99371 15945 ft 263 kts 126°
2026-05-08 13:00 33.08341 -83.97597 15941 ft 255 kts 142°
2026-05-08 13:01 33.07024 -83.96269 15941 ft 244 kts 157°
2026-05-08 13:01 33.05624 -83.95122 15939 ft 244 kts 157°
2026-05-08 13:01 33.04235 -83.93955 15964 ft 245 kts 156°
2026-05-08 13:01 33.02842 -83.92783 15963 ft 245 kts 157°
2026-05-08 13:02 33.01448 -83.91617 15962 ft 245 kts 157°
2026-05-08 13:02 33.00056 -83.90456 15961 ft 244 kts 156°
2026-05-08 13:02 32.98666 -83.89294 15958 ft 244 kts 155°
2026-05-08 13:02 32.97283 -83.88136 15956 ft 243 kts 156°
2026-05-08 13:03 32.95897 -83.86982 15951 ft 243 kts 156°
2026-05-08 13:03 32.94514 -83.85826 15939 ft 244 kts 156°
2026-05-08 13:03 32.93113 -83.84655 15845 ft 248 kts 155°
2026-05-08 13:03 32.91695 -83.83471 15754 ft 250 kts 155°
2026-05-08 13:04 32.90266 -83.82276 15660 ft 251 kts 155°
2026-05-08 13:04 32.88838 -83.81084 15564 ft 251 kts 155°
2026-05-08 13:04 32.87406 -83.79889 15470 ft 251 kts 155°
2026-05-08 13:04 32.85979 -83.78698 15378 ft 251 kts 155°
2026-05-08 13:05 32.84548 -83.77505 15285 ft 251 kts 155°
2026-05-08 13:05 32.83140 -83.76334 15195 ft 250 kts 155°
2026-05-08 13:05 32.81716 -83.75150 15103 ft 250 kts 155°
2026-05-08 13:05 32.80289 -83.73963 15010 ft 250 kts 155°
2026-05-08 13:06 32.78874 -83.72783 14998 ft 247 kts 155°
2026-05-08 13:06 32.77476 -83.71619 14997 ft 244 kts 155°
2026-05-08 13:06 32.76091 -83.70469 14995 ft 242 kts 155°
2026-05-08 13:06 32.74712 -83.69326 14992 ft 241 kts 155°
2026-05-08 13:07 32.73804 -83.68571 14992 ft 240 kts 155°
2026-05-08 13:07 32.71983 -83.67054 14993 ft 238 kts 155°
2026-05-08 13:07 32.71066 -83.66293 14991 ft 237 kts 155°
2026-05-08 13:07 32.69257 -83.64851 14984 ft 231 kts 162°
2026-05-08 13:08 32.68298 -83.64375 14991 ft 221 kts 175°
2026-05-08 13:08 32.66339 -83.63672 14990 ft 220 kts 175°
2026-05-08 13:08 32.65368 -83.63310 14981 ft 221 kts 175°
2026-05-08 13:08 32.63905 -83.62762 14983 ft 220 kts 175°
2026-05-08 13:09 32.62443 -83.62222 14981 ft 220 kts 175°
2026-05-08 13:09 32.60982 -83.61683 14982 ft 220 kts 175°
2026-05-08 13:09 32.59517 -83.61143 14981 ft 220 kts 175°
2026-05-08 13:09 32.58055 -83.60603 14985 ft 221 kts 175°
2026-05-08 13:10 32.56586 -83.60062 14980 ft 220 kts 175°
2026-05-08 13:10 32.55124 -83.59522 14984 ft 221 kts 175°
2026-05-08 13:10 32.53659 -83.58982 14978 ft 220 kts 175°
2026-05-08 13:10 32.52192 -83.58442 14976 ft 220 kts 175°
2026-05-08 13:11 32.50734 -83.57904 14982 ft 220 kts 175°
2026-05-08 13:11 32.49268 -83.57363 14977 ft 220 kts 176°
2026-05-08 13:11 32.47805 -83.56825 14974 ft 220 kts 175°
2026-05-08 13:11 32.46343 -83.56287 14971 ft 220 kts 175°
2026-05-08 13:12 32.44876 -83.55745 14986 ft 220 kts 175°
2026-05-08 13:12 32.43422 -83.55211 14983 ft 219 kts 176°
2026-05-08 13:12 32.41962 -83.54675 14979 ft 219 kts 175°
2026-05-08 13:12 32.40503 -83.54137 14978 ft 219 kts 176°
2026-05-08 13:13 32.39067 -83.53605 14976 ft 218 kts 176°
2026-05-08 13:13 32.37596 -83.53068 14972 ft 219 kts 176°
2026-05-08 13:13 32.36157 -83.52542 14968 ft 220 kts 176°
2026-05-08 13:13 32.34694 -83.52005 14965 ft 220 kts 175°
2026-05-08 13:14 32.33215 -83.51460 14944 ft 220 kts 175°
2026-05-08 13:14 32.31770 -83.50930 14943 ft 220 kts 176°
2026-05-08 13:14 32.30305 -83.50392 14941 ft 220 kts 175°
2026-05-08 13:14 32.28841 -83.49856 14941 ft 220 kts 176°
2026-05-08 13:15 32.27380 -83.49322 14942 ft 221 kts 176°
2026-05-08 13:15 32.25912 -83.48787 14943 ft 220 kts 176°
2026-05-08 13:15 32.24444 -83.48262 14943 ft 220 kts 176°
2026-05-08 13:15 32.22977 -83.47724 14938 ft 221 kts 175°
2026-05-08 13:16 32.21512 -83.47181 14940 ft 220 kts 175°
2026-05-08 13:16 32.20047 -83.46638 14939 ft 220 kts 175°
2026-05-08 13:16 32.18585 -83.46104 14939 ft 220 kts 176°
2026-05-08 13:16 32.17124 -83.45567 14938 ft 218 kts 176°
2026-05-08 13:17 32.15672 -83.45038 14941 ft 219 kts 176°
2026-05-08 13:17 32.14219 -83.44509 14940 ft 219 kts 176°
2026-05-08 13:17 32.12763 -83.43974 14939 ft 219 kts 176°
2026-05-08 13:17 32.11309 -83.43442 14958 ft 219 kts 176°
2026-05-08 13:18 32.09854 -83.42911 14958 ft 219 kts 176°
2026-05-08 13:18 32.08414 -83.42387 14956 ft 220 kts 176°
2026-05-08 13:18 32.06955 -83.41854 14956 ft 219 kts 176°
2026-05-08 13:18 32.05497 -83.41322 14955 ft 220 kts 176°
2026-05-08 13:19 32.04034 -83.40789 14953 ft 220 kts 176°
2026-05-08 13:19 32.02568 -83.40254 14952 ft 220 kts 176°
2026-05-08 13:19 32.01106 -83.39720 14949 ft 220 kts 176°
2026-05-08 13:19 31.99647 -83.39189 14947 ft 220 kts 176°
2026-05-08 13:20 31.98184 -83.38657 14943 ft 220 kts 176°
2026-05-08 13:20 31.96724 -83.38125 14947 ft 220 kts 176°
2026-05-08 13:20 31.95264 -83.37593 14948 ft 219 kts 176°
2026-05-08 13:20 31.93806 -83.37062 14951 ft 219 kts 176°
2026-05-08 13:21 31.92352 -83.36534 14955 ft 219 kts 176°
2026-05-08 13:21 31.90897 -83.36005 14956 ft 219 kts 176°
2026-05-08 13:21 31.89445 -83.35475 14958 ft 217 kts 176°
2026-05-08 13:21 31.88000 -83.34950 14962 ft 217 kts 176°
2026-05-08 13:22 31.86561 -83.34430 14966 ft 216 kts 176°
2026-05-08 13:22 31.85124 -83.33908 14965 ft 216 kts 176°
2026-05-08 13:22 31.83685 -83.33386 14969 ft 216 kts 176°
2026-05-08 13:22 31.82252 -83.32867 14972 ft 216 kts 176°
2026-05-08 13:23 31.80819 -83.32345 14977 ft 215 kts 176°
2026-05-08 13:23 31.79385 -83.31825 14978 ft 216 kts 176°
2026-05-08 13:23 31.77948 -83.31304 14981 ft 216 kts 176°
2026-05-08 13:23 31.76508 -83.30784 14982 ft 217 kts 176°
2026-05-08 13:24 31.75084 -83.30268 14981 ft 217 kts 176°
2026-05-08 13:24 31.73646 -83.29746 14981 ft 217 kts 176°
2026-05-08 13:24 31.72201 -83.29223 14982 ft 217 kts 176°
2026-05-08 13:24 31.70757 -83.28702 14981 ft 218 kts 176°
2026-05-08 13:25 31.69309 -83.28178 14983 ft 217 kts 176°
2026-05-08 13:25 31.67862 -83.27655 14983 ft 218 kts 176°
2026-05-08 13:25 31.66418 -83.27133 14982 ft 217 kts 176°
2026-05-08 13:25 31.64972 -83.26610 14981 ft 217 kts 176°
2026-05-08 13:26 31.63527 -83.26087 14931 ft 217 kts 176°
2026-05-08 13:26 31.62081 -83.25565 14902 ft 217 kts 175°
2026-05-08 13:26 31.60652 -83.25050 14930 ft 215 kts 175°
2026-05-08 13:26 31.59219 -83.24534 14931 ft 215 kts 175°
2026-05-08 13:27 31.57792 -83.24020 14932 ft 215 kts 175°
2026-05-08 13:27 31.56364 -83.23504 14933 ft 214 kts 175°
2026-05-08 13:27 31.54940 -83.22991 14934 ft 215 kts 175°
2026-05-08 13:27 31.53514 -83.22476 14934 ft 215 kts 175°
2026-05-08 13:28 31.52084 -83.21963 14938 ft 215 kts 175°
2026-05-08 13:28 31.50659 -83.21449 14941 ft 214 kts 175°
2026-05-08 13:28 31.49235 -83.20935 14940 ft 214 kts 175°
2026-05-08 13:28 31.47810 -83.20423 14942 ft 214 kts 175°
2026-05-08 13:29 31.46391 -83.19913 14942 ft 214 kts 175°
2026-05-08 13:29 31.44966 -83.19400 14942 ft 214 kts 175°
2026-05-08 13:29 31.43543 -83.18889 14942 ft 214 kts 175°
2026-05-08 13:29 31.42116 -83.18376 14941 ft 215 kts 175°
2026-05-08 13:30 31.40687 -83.17862 14944 ft 215 kts 175°
2026-05-08 13:30 31.39261 -83.17350 14943 ft 215 kts 175°
2026-05-08 13:30 31.37829 -83.16836 14943 ft 215 kts 175°
2026-05-08 13:30 31.36395 -83.16321 14942 ft 216 kts 175°
2026-05-08 13:31 31.34963 -83.15808 14942 ft 215 kts 175°
2026-05-08 13:31 31.33531 -83.15292 14935 ft 214 kts 175°
2026-05-08 13:31 31.32110 -83.14782 14941 ft 213 kts 175°
2026-05-08 13:31 31.30689 -83.14274 14936 ft 213 kts 175°
2026-05-08 13:32 31.29270 -83.13766 14945 ft 213 kts 175°
2026-05-08 13:32 31.27855 -83.13259 14934 ft 213 kts 175°
2026-05-08 13:32 31.26434 -83.12749 14935 ft 213 kts 175°
2026-05-08 13:32 31.25012 -83.12241 14928 ft 214 kts 175°
2026-05-08 13:33 31.23597 -83.11733 14933 ft 213 kts 175°
2026-05-08 13:33 31.22175 -83.11224 14928 ft 213 kts 175°
2026-05-08 13:33 31.20758 -83.10716 14930 ft 213 kts 175°
2026-05-08 13:33 31.19358 -83.10216 14932 ft 213 kts 175°
2026-05-08 13:34 31.17944 -83.09711 14935 ft 213 kts 175°
2026-05-08 13:34 31.16525 -83.09204 14932 ft 213 kts 175°
2026-05-08 13:34 31.15108 -83.08698 14938 ft 213 kts 175°
2026-05-08 13:34 31.13694 -83.08193 14941 ft 213 kts 175°
2026-05-08 13:35 31.12277 -83.07687 14937 ft 213 kts 175°
2026-05-08 13:35 31.10860 -83.07181 14938 ft 213 kts 175°
2026-05-08 13:35 31.09441 -83.06674 14942 ft 213 kts 175°
2026-05-08 13:35 31.08025 -83.06169 14941 ft 213 kts 175°
2026-05-08 13:36 31.06607 -83.05664 14938 ft 213 kts 175°
2026-05-08 13:36 31.05192 -83.05159 14934 ft 212 kts 175°
2026-05-08 13:36 31.03784 -83.04655 14942 ft 211 kts 175°
2026-05-08 13:36 31.02378 -83.04156 14937 ft 212 kts 175°
2026-05-08 13:37 31.00968 -83.03654 14937 ft 212 kts 175°
2026-05-08 13:37 30.99561 -83.03153 14941 ft 212 kts 175°
2026-05-08 13:37 30.98154 -83.02653 14942 ft 212 kts 175°
2026-05-08 13:37 30.96742 -83.02150 14937 ft 212 kts 175°
2026-05-08 13:38 30.95326 -83.01647 14942 ft 212 kts 175°
2026-05-08 13:38 30.93916 -83.01145 14940 ft 212 kts 175°
2026-05-08 13:38 30.92502 -83.00641 14919 ft 212 kts 175°
2026-05-08 13:38 30.91089 -83.00139 14918 ft 212 kts 175°
2026-05-08 13:39 30.89676 -82.99637 14917 ft 212 kts 175°
2026-05-08 13:39 30.88261 -82.99134 14919 ft 212 kts 175°
2026-05-08 13:39 30.86849 -82.98633 14919 ft 212 kts 175°
2026-05-08 13:39 30.85436 -82.98131 14917 ft 212 kts 175°
2026-05-08 13:40 30.84025 -82.97631 14922 ft 212 kts 175°
2026-05-08 13:40 30.82610 -82.97129 14920 ft 212 kts 175°
2026-05-08 13:40 30.81199 -82.96628 14919 ft 212 kts 175°
2026-05-08 13:40 30.79789 -82.96128 14920 ft 212 kts 175°
2026-05-08 13:41 30.78377 -82.95627 14917 ft 212 kts 175°
2026-05-08 13:41 30.76981 -82.95133 14919 ft 212 kts 175°
2026-05-08 13:41 30.75556 -82.94628 14922 ft 212 kts 175°
2026-05-08 13:41 30.74166 -82.94123 14922 ft 215 kts 172°
2026-05-08 13:42 30.72779 -82.93394 14924 ft 219 kts 166°
2026-05-08 13:42 30.71396 -82.92664 14923 ft 219 kts 167°
2026-05-08 13:42 30.70006 -82.91939 14922 ft 219 kts 167°
2026-05-08 13:42 30.68617 -82.91212 14922 ft 219 kts 167°
2026-05-08 13:43 30.67228 -82.90483 14921 ft 219 kts 167°
2026-05-08 13:43 30.65838 -82.89752 14921 ft 219 kts 167°
2026-05-08 13:43 30.64448 -82.89024 14920 ft 220 kts 167°
2026-05-08 13:43 30.63052 -82.88293 14919 ft 220 kts 167°
2026-05-08 13:44 30.61662 -82.87564 14923 ft 220 kts 167°
2026-05-08 13:44 30.60268 -82.86836 14922 ft 219 kts 167°
2026-05-08 13:44 30.58878 -82.86108 14922 ft 219 kts 167°
2026-05-08 13:44 30.57487 -82.85377 14919 ft 220 kts 167°
2026-05-08 13:45 30.56094 -82.84647 14922 ft 219 kts 167°
2026-05-08 13:45 30.54703 -82.83919 14921 ft 219 kts 167°
2026-05-08 13:45 30.53309 -82.83191 14921 ft 220 kts 167°
2026-05-08 13:45 30.51917 -82.82463 14920 ft 220 kts 167°
2026-05-08 13:46 30.50527 -82.81736 14919 ft 220 kts 167°
2026-05-08 13:46 30.49131 -82.81007 14920 ft 220 kts 167°
2026-05-08 13:46 30.47740 -82.80280 14921 ft 219 kts 167°
2026-05-08 13:46 30.46347 -82.79552 14920 ft 220 kts 167°
2026-05-08 13:47 30.44951 -82.78823 14920 ft 219 kts 167°
2026-05-08 13:47 30.43559 -82.78097 14919 ft 219 kts 167°
2026-05-08 13:47 30.42169 -82.77373 14920 ft 219 kts 167°
2026-05-08 13:47 30.40777 -82.76645 14920 ft 219 kts 167°
2026-05-08 13:48 30.39386 -82.75919 14924 ft 219 kts 167°
2026-05-08 13:48 30.38013 -82.75203 14923 ft 219 kts 167°
2026-05-08 13:48 30.36608 -82.74472 14922 ft 219 kts 167°
2026-05-08 13:48 30.35215 -82.73747 14923 ft 220 kts 167°
2026-05-08 13:49 30.33821 -82.73020 14922 ft 220 kts 167°
2026-05-08 13:49 30.32446 -82.72302 14923 ft 219 kts 167°
2026-05-08 13:49 30.31055 -82.71580 14923 ft 220 kts 167°
2026-05-08 13:49 30.29640 -82.70844 14922 ft 220 kts 167°
2026-05-08 13:50 30.28265 -82.70128 14918 ft 219 kts 167°
2026-05-08 13:50 30.26874 -82.69405 14917 ft 219 kts 167°
2026-05-08 13:50 30.25480 -82.68681 14917 ft 219 kts 167°
2026-05-08 13:50 30.24088 -82.67958 14917 ft 220 kts 167°
2026-05-08 13:51 30.22693 -82.67234 14943 ft 219 kts 167°
2026-05-08 13:51 30.21301 -82.66510 14944 ft 219 kts 167°
2026-05-08 13:51 30.19906 -82.65786 14945 ft 220 kts 167°
2026-05-08 13:51 30.18513 -82.65063 14947 ft 219 kts 166°
2026-05-08 13:52 30.17119 -82.64340 14945 ft 220 kts 166°
2026-05-08 13:52 30.15724 -82.63617 14945 ft 220 kts 166°
2026-05-08 13:52 30.14325 -82.62890 14945 ft 221 kts 166°
2026-05-08 13:52 30.12926 -82.62165 14945 ft 220 kts 166°
2026-05-08 13:53 30.11527 -82.61440 14944 ft 220 kts 166°
2026-05-08 13:53 30.10128 -82.60715 14946 ft 221 kts 166°
2026-05-08 13:53 30.08727 -82.59990 14945 ft 221 kts 166°
2026-05-08 13:53 30.07324 -82.59264 14943 ft 221 kts 166°
2026-05-08 13:54 30.05922 -82.58538 14941 ft 221 kts 166°
2026-05-08 13:54 30.04522 -82.57813 14942 ft 221 kts 166°
2026-05-08 13:54 30.03118 -82.57087 14940 ft 221 kts 166°
2026-05-08 13:54 30.01712 -82.56359 14939 ft 221 kts 166°
2026-05-08 13:55 30.00312 -82.55635 14940 ft 221 kts 166°
2026-05-08 13:55 29.98912 -82.54912 14936 ft 221 kts 166°
2026-05-08 13:55 29.96108 -82.53463 14935 ft 221 kts 166°
2026-05-08 13:56 29.94703 -82.52738 14938 ft 221 kts 166°
2026-05-08 13:56 29.93304 -82.52016 14937 ft 221 kts 166°
2026-05-08 13:56 29.92374 -82.51537 14935 ft 221 kts 166°
2026-05-08 13:56 29.90970 -82.50813 14933 ft 221 kts 166°
2026-05-08 13:57 29.89565 -82.50088 14929 ft 220 kts 165°
2026-05-08 13:57 29.88165 -82.49365 14938 ft 221 kts 165°
2026-05-08 13:57 29.86764 -82.48645 14935 ft 221 kts 165°
2026-05-08 13:57 29.85360 -82.47922 14942 ft 221 kts 165°
2026-05-08 13:58 29.83958 -82.47199 14942 ft 221 kts 165°
2026-05-08 13:58 29.82552 -82.46475 14941 ft 221 kts 165°
2026-05-08 13:58 29.81147 -82.45752 14943 ft 221 kts 165°
2026-05-08 13:58 29.79746 -82.45030 14945 ft 221 kts 165°
2026-05-08 13:59 29.78344 -82.44309 14947 ft 221 kts 165°
2026-05-08 13:59 29.76939 -82.43586 14950 ft 221 kts 165°
2026-05-08 13:59 29.75535 -82.42865 14948 ft 221 kts 165°
2026-05-08 13:59 29.74131 -82.42143 14947 ft 221 kts 165°
2026-05-08 14:00 29.72728 -82.41421 14951 ft 221 kts 165°
2026-05-08 14:00 29.71330 -82.40703 14950 ft 221 kts 165°
2026-05-08 14:00 29.69929 -82.39984 14954 ft 221 kts 165°
2026-05-08 14:00 29.68538 -82.39270 14954 ft 222 kts 165°
2026-05-08 14:01 29.67107 -82.38535 14958 ft 222 kts 165°
2026-05-08 14:01 29.65697 -82.37811 14957 ft 222 kts 165°
2026-05-08 14:01 29.64285 -82.37087 14957 ft 222 kts 165°
2026-05-08 14:01 29.62869 -82.36360 14955 ft 222 kts 165°
2026-05-08 14:02 29.61457 -82.35638 14953 ft 222 kts 165°
2026-05-08 14:02 29.60044 -82.34915 14953 ft 221 kts 165°
2026-05-08 14:02 29.58662 -82.34207 14953 ft 221 kts 165°
2026-05-08 14:02 29.57239 -82.33478 14950 ft 221 kts 165°
2026-05-08 14:03 29.55836 -82.32759 14950 ft 220 kts 165°
2026-05-08 14:03 29.54456 -82.32054 14946 ft 221 kts 165°
2026-05-08 14:03 29.53054 -82.31337 14926 ft 221 kts 165°
2026-05-08 14:03 29.51633 -82.30610 14928 ft 221 kts 165°
2026-05-08 14:04 29.50230 -82.29892 14926 ft 221 kts 165°
2026-05-08 14:04 29.48830 -82.29178 14928 ft 220 kts 165°
2026-05-08 14:04 29.47428 -82.28461 14928 ft 220 kts 165°
2026-05-08 14:04 29.46046 -82.27759 14936 ft 222 kts 165°
2026-05-08 14:05 29.44627 -82.27040 14932 ft 223 kts 164°
2026-05-08 14:05 29.43219 -82.26310 14935 ft 222 kts 164°
2026-05-08 14:05 29.41809 -82.25588 14934 ft 221 kts 165°
2026-05-08 14:05 29.40413 -82.24878 14938 ft 220 kts 165°
2026-05-08 14:06 29.39009 -82.24165 14937 ft 220 kts 165°
2026-05-08 14:06 29.37609 -82.23450 14944 ft 220 kts 165°
2026-05-08 14:06 29.36210 -82.22736 14943 ft 220 kts 165°
2026-05-08 14:06 29.34815 -82.22026 14941 ft 220 kts 165°
2026-05-08 14:07 29.33415 -82.21315 14946 ft 220 kts 165°
2026-05-08 14:07 29.32013 -82.20600 14947 ft 220 kts 165°
2026-05-08 14:07 29.30613 -82.19887 14950 ft 220 kts 164°
2026-05-08 14:07 29.29211 -82.19216 14949 ft 215 kts 171°
2026-05-08 14:08 29.27770 -82.18933 14953 ft 208 kts 182°
2026-05-08 14:08 29.26347 -82.18722 14959 ft 209 kts 181°
2026-05-08 14:08 29.24903 -82.18490 14959 ft 210 kts 181°
2026-05-08 14:08 29.23433 -82.18260 14957 ft 210 kts 181°
2026-05-08 14:09 29.21987 -82.18038 14956 ft 210 kts 181°
2026-05-08 14:09 29.20561 -82.17818 14954 ft 209 kts 181°
2026-05-08 14:09 29.19118 -82.17596 14953 ft 209 kts 181°
2026-05-08 14:09 29.17658 -82.17370 14953 ft 209 kts 181°
2026-05-08 14:10 29.16220 -82.17148 14954 ft 209 kts 181°
2026-05-08 14:10 29.14799 -82.16929 14954 ft 209 kts 181°
2026-05-08 14:10 29.13361 -82.16708 14953 ft 209 kts 181°
2026-05-08 14:10 29.11921 -82.16485 14955 ft 209 kts 181°
2026-05-08 14:11 29.10481 -82.16265 14955 ft 209 kts 181°
2026-05-08 14:11 29.09040 -82.16043 14953 ft 209 kts 181°
2026-05-08 14:11 29.07600 -82.15821 14951 ft 209 kts 181°
2026-05-08 14:11 29.06163 -82.15600 14948 ft 209 kts 181°
2026-05-08 14:12 29.04722 -82.15379 14946 ft 209 kts 181°
2026-05-08 14:12 29.03284 -82.15157 14945 ft 209 kts 181°
2026-05-08 14:12 29.01844 -82.14936 14934 ft 209 kts 181°
2026-05-08 14:12 29.00409 -82.14715 14944 ft 208 kts 181°
2026-05-08 14:13 28.98974 -82.14494 14941 ft 208 kts 181°
2026-05-08 14:13 28.97541 -82.14274 14938 ft 208 kts 181°
2026-05-08 14:13 28.96107 -82.14054 14938 ft 208 kts 181°
2026-05-08 14:13 28.94673 -82.13833 14934 ft 208 kts 181°
2026-05-08 14:14 28.93246 -82.13615 14934 ft 207 kts 181°
2026-05-08 14:14 28.91814 -82.13395 14931 ft 208 kts 181°
2026-05-08 14:14 28.90380 -82.13175 14930 ft 208 kts 181°
2026-05-08 14:14 28.88948 -82.12956 14927 ft 208 kts 181°
2026-05-08 14:15 28.87519 -82.12737 14929 ft 208 kts 181°
2026-05-08 14:15 28.86080 -82.12516 14926 ft 208 kts 181°
2026-05-08 14:15 28.84649 -82.12297 14924 ft 208 kts 181°
2026-05-08 14:15 28.83220 -82.12073 14925 ft 207 kts 181°
2026-05-08 14:16 28.81791 -82.11853 14944 ft 207 kts 181°
2026-05-08 14:16 28.80376 -82.11639 14943 ft 208 kts 181°
2026-05-08 14:16 28.78925 -82.11418 14942 ft 208 kts 181°
2026-05-08 14:16 28.77491 -82.11199 14942 ft 208 kts 181°
2026-05-08 14:17 28.76080 -82.10982 14942 ft 207 kts 181°
2026-05-08 14:17 28.74651 -82.10764 14941 ft 207 kts 181°
2026-05-08 14:17 28.73223 -82.10547 14940 ft 207 kts 181°
2026-05-08 14:17 28.71795 -82.10329 14941 ft 206 kts 180°
2026-05-08 14:18 28.70369 -82.10110 14938 ft 207 kts 180°
2026-05-08 14:18 28.68945 -82.09893 14937 ft 207 kts 180°
2026-05-08 14:18 28.67522 -82.09676 14936 ft 207 kts 180°
2026-05-08 14:18 28.66096 -82.09458 14936 ft 207 kts 180°
2026-05-08 14:19 28.64669 -82.09240 14933 ft 207 kts 180°
2026-05-08 14:19 28.63244 -82.09023 14932 ft 207 kts 180°
2026-05-08 14:19 28.61814 -82.08805 14930 ft 207 kts 180°
2026-05-08 14:19 28.60387 -82.08588 14929 ft 207 kts 180°
2026-05-08 14:20 28.58964 -82.08370 14928 ft 207 kts 180°
2026-05-08 14:20 28.57535 -82.08152 14926 ft 207 kts 180°
2026-05-08 14:20 28.56107 -82.07935 14926 ft 207 kts 180°
2026-05-08 14:20 28.54683 -82.07718 14929 ft 207 kts 181°
2026-05-08 14:21 28.53256 -82.07500 14932 ft 207 kts 180°
2026-05-08 14:21 28.51832 -82.07283 14933 ft 207 kts 180°
2026-05-08 14:21 28.50410 -82.07067 14935 ft 207 kts 180°
2026-05-08 14:21 28.48978 -82.06849 14938 ft 207 kts 180°
2026-05-08 14:22 28.47553 -82.06632 14943 ft 207 kts 180°
2026-05-08 14:22 28.46122 -82.06415 14945 ft 207 kts 180°
2026-05-08 14:22 28.44694 -82.06199 14947 ft 207 kts 180°
2026-05-08 14:22 28.43265 -82.05981 14950 ft 207 kts 180°
2026-05-08 14:23 28.41858 -82.05768 14954 ft 207 kts 180°
2026-05-08 14:23 28.40415 -82.05547 14955 ft 207 kts 180°
2026-05-08 14:23 28.38986 -82.05329 14956 ft 207 kts 180°
2026-05-08 14:23 28.37570 -82.05115 14958 ft 207 kts 180°
2026-05-08 14:24 28.36145 -82.04899 14961 ft 207 kts 180°
2026-05-08 14:24 28.34711 -82.04682 14962 ft 207 kts 180°
2026-05-08 14:24 28.33283 -82.04465 14964 ft 207 kts 180°
2026-05-08 14:24 28.31848 -82.04247 14965 ft 208 kts 180°
2026-05-08 14:25 28.30417 -82.04031 14967 ft 207 kts 180°
2026-05-08 14:25 28.28986 -82.03814 14967 ft 208 kts 180°
2026-05-08 14:25 28.27556 -82.03597 14969 ft 208 kts 180°
2026-05-08 14:25 28.26126 -82.03381 14968 ft 208 kts 180°
2026-05-08 14:26 28.24694 -82.03163 14971 ft 207 kts 180°
2026-05-08 14:26 28.23260 -82.02947 14970 ft 208 kts 180°
2026-05-08 14:26 28.21828 -82.02730 14969 ft 208 kts 180°
2026-05-08 14:26 28.20393 -82.02512 14959 ft 208 kts 180°
2026-05-08 14:27 28.18960 -82.02295 14960 ft 208 kts 180°
2026-05-08 14:27 28.17527 -82.02079 14958 ft 208 kts 180°
2026-05-08 14:27 28.16091 -82.01861 14957 ft 208 kts 180°
2026-05-08 14:27 28.14658 -82.01644 14956 ft 208 kts 180°
2026-05-08 14:28 28.13225 -82.01427 14953 ft 208 kts 179°
2026-05-08 14:28 28.11793 -82.01211 14960 ft 208 kts 179°
2026-05-08 14:28 28.10361 -82.00995 14961 ft 208 kts 180°
2026-05-08 14:28 28.08928 -82.00778 14961 ft 208 kts 180°
2026-05-08 14:29 28.07495 -82.00562 14964 ft 208 kts 180°
2026-05-08 14:29 28.06062 -82.00346 14963 ft 208 kts 180°
2026-05-08 14:29 28.04630 -82.00131 14964 ft 208 kts 180°
2026-05-08 14:29 28.03198 -81.99914 14963 ft 208 kts 179°
2026-05-08 14:30 28.01767 -81.99699 14963 ft 208 kts 180°
2026-05-08 14:30 28.00335 -81.99481 14964 ft 208 kts 180°
2026-05-08 14:30 27.98899 -81.99265 14963 ft 208 kts 180°
2026-05-08 14:30 27.97491 -81.99052 14965 ft 207 kts 180°
2026-05-08 14:31 27.96060 -81.98836 14966 ft 208 kts 180°
2026-05-08 14:31 27.94625 -81.98624 14965 ft 208 kts 180°
2026-05-08 14:31 27.93192 -81.98406 14965 ft 208 kts 179°
2026-05-08 14:32 27.90324 -81.97973 14964 ft 208 kts 179°
2026-05-08 14:32 27.88894 -81.97758 14961 ft 208 kts 180°
2026-05-08 14:32 27.87459 -81.97543 14960 ft 208 kts 180°
2026-05-08 14:32 27.86025 -81.97327 14962 ft 208 kts 180°
2026-05-08 14:33 27.84591 -81.97110 14959 ft 208 kts 180°
2026-05-08 14:33 27.83157 -81.96895 14953 ft 208 kts 179°
2026-05-08 14:33 27.81728 -81.96681 14959 ft 207 kts 179°
2026-05-08 14:33 27.80298 -81.96465 14955 ft 207 kts 179°
2026-05-08 14:34 27.78863 -81.96250 14955 ft 208 kts 179°
2026-05-08 14:34 27.77433 -81.96034 14955 ft 208 kts 179°
2026-05-08 14:34 27.75999 -81.95818 14951 ft 208 kts 179°
2026-05-08 14:34 27.74566 -81.95603 14950 ft 208 kts 179°
2026-05-08 14:35 27.73134 -81.95389 14948 ft 208 kts 179°
2026-05-08 14:35 27.71701 -81.95174 14949 ft 208 kts 179°
2026-05-08 14:35 27.70266 -81.94959 14947 ft 208 kts 179°
2026-05-08 14:35 27.68830 -81.94743 14944 ft 208 kts 179°
2026-05-08 14:36 27.67398 -81.94529 14943 ft 208 kts 179°
2026-05-08 14:36 27.65965 -81.94313 14940 ft 208 kts 179°
2026-05-08 14:36 27.64529 -81.94098 14940 ft 208 kts 179°
2026-05-08 14:36 27.63112 -81.93886 14939 ft 208 kts 179°
2026-05-08 14:37 27.61658 -81.93668 14941 ft 208 kts 179°
2026-05-08 14:37 27.60224 -81.93453 14938 ft 208 kts 179°
2026-05-08 14:37 27.58794 -81.93239 14937 ft 208 kts 179°
2026-05-08 14:37 27.57363 -81.93025 14936 ft 208 kts 179°
2026-05-08 14:38 27.55929 -81.92811 14937 ft 208 kts 179°
2026-05-08 14:38 27.54495 -81.92596 14935 ft 208 kts 179°
2026-05-08 14:38 27.53058 -81.92382 14939 ft 208 kts 179°
2026-05-08 14:38 27.51623 -81.92166 14936 ft 208 kts 179°
2026-05-08 14:39 27.50211 -81.91955 14936 ft 208 kts 179°
2026-05-08 14:39 27.48777 -81.91741 14936 ft 207 kts 179°
2026-05-08 14:39 27.47345 -81.91527 14937 ft 207 kts 179°
2026-05-08 14:39 27.45914 -81.91314 14938 ft 208 kts 179°
2026-05-08 14:40 27.44481 -81.91099 14937 ft 208 kts 179°
2026-05-08 14:40 27.43045 -81.90885 14937 ft 208 kts 179°
2026-05-08 14:40 27.41614 -81.90671 14937 ft 207 kts 179°
2026-05-08 14:40 27.40181 -81.90458 14936 ft 207 kts 179°
2026-05-08 14:41 27.38751 -81.90245 14935 ft 207 kts 179°
2026-05-08 14:41 27.37326 -81.90032 14936 ft 207 kts 179°
2026-05-08 14:41 27.35896 -81.89820 14939 ft 207 kts 179°
2026-05-08 14:41 27.34461 -81.89605 14939 ft 208 kts 179°
2026-05-08 14:42 27.33030 -81.89392 14943 ft 208 kts 179°
2026-05-08 14:42 27.31593 -81.89178 14941 ft 208 kts 179°
2026-05-08 14:42 27.30158 -81.88965 14941 ft 208 kts 179°
2026-05-08 14:42 27.28724 -81.88752 14939 ft 208 kts 179°
2026-05-08 14:43 27.27293 -81.88539 14939 ft 208 kts 179°
2026-05-08 14:43 27.26341 -81.88398 14937 ft 208 kts 179°
2026-05-08 14:43 27.24423 -81.88112 14939 ft 207 kts 179°
2026-05-08 14:43 27.22997 -81.87898 14942 ft 207 kts 178°
2026-05-08 14:44 27.21568 -81.87686 14946 ft 207 kts 178°
2026-05-08 14:44 27.20157 -81.87476 14947 ft 207 kts 178°
2026-05-08 14:44 27.18705 -81.87260 14949 ft 208 kts 178°
2026-05-08 14:44 27.17756 -81.87120 14948 ft 208 kts 178°
2026-05-08 14:45 27.15850 -81.86839 14951 ft 208 kts 178°
2026-05-08 14:45 27.14417 -81.86626 14953 ft 208 kts 178°
2026-05-08 14:45 27.13446 -81.86479 14952 ft 208 kts 178°
2026-05-08 14:45 27.11543 -81.86197 14955 ft 208 kts 178°
2026-05-08 14:46 27.10107 -81.85984 14956 ft 208 kts 178°
2026-05-08 14:46 27.08672 -81.85772 14958 ft 208 kts 178°
2026-05-08 14:46 27.07238 -81.85559 14958 ft 208 kts 178°
2026-05-08 14:46 27.06272 -81.85415 14961 ft 207 kts 179°
2026-05-08 14:47 27.04841 -81.85204 14962 ft 208 kts 178°
2026-05-08 14:47 27.03405 -81.84990 14962 ft 208 kts 178°
2026-05-08 14:47 27.01971 -81.84778 14965 ft 208 kts 178°
2026-05-08 14:47 27.00538 -81.84568 14964 ft 208 kts 179°
2026-05-08 14:48 26.99108 -81.84356 14965 ft 208 kts 178°
2026-05-08 14:48 26.97676 -81.84144 14967 ft 207 kts 178°
2026-05-08 14:48 26.96245 -81.83931 14967 ft 207 kts 178°
2026-05-08 14:48 26.94812 -81.83719 14968 ft 208 kts 179°
2026-05-08 14:49 26.93381 -81.83508 14963 ft 207 kts 178°
2026-05-08 14:49 26.92095 -81.83318 14974 ft 172 kts 179°
2026-05-08 14:49 26.90831 -81.83126 14965 ft 188 kts 178°
2026-05-08 14:49 26.89524 -81.82934 14968 ft 196 kts 178°
2026-05-08 14:50 26.88155 -81.82732 14968 ft 200 kts 178°
2026-05-08 14:50 26.86762 -81.82530 14970 ft 203 kts 178°
2026-05-08 14:50 26.85350 -81.82322 14971 ft 205 kts 178°
2026-05-08 14:50 26.83934 -81.82112 14971 ft 206 kts 178°
2026-05-08 14:51 26.82512 -81.81902 14973 ft 206 kts 178°
2026-05-08 14:51 26.81086 -81.81692 14970 ft 207 kts 178°
2026-05-08 14:51 26.79636 -81.81479 14971 ft 207 kts 178°
2026-05-08 14:51 26.78225 -81.81272 14968 ft 207 kts 178°
2026-05-08 14:52 26.76792 -81.81059 14966 ft 208 kts 178°
2026-05-08 14:52 26.73929 -81.80638 14964 ft 208 kts 178°
2026-05-08 14:52 26.72494 -81.80427 14962 ft 208 kts 178°
2026-05-08 14:53 26.71059 -81.80215 14958 ft 208 kts 178°
2026-05-08 14:53 26.69625 -81.80003 14956 ft 208 kts 178°
2026-05-08 14:53 26.68186 -81.79793 14958 ft 208 kts 178°
2026-05-08 14:53 26.66750 -81.79581 14955 ft 208 kts 178°
2026-05-08 14:54 26.65314 -81.79369 14956 ft 208 kts 178°
2026-05-08 14:54 26.63879 -81.79157 14954 ft 208 kts 178°
2026-05-08 14:54 26.62447 -81.78951 14958 ft 207 kts 177°
2026-05-08 14:54 26.61017 -81.78740 14956 ft 207 kts 177°
2026-05-08 14:55 26.59584 -81.78527 14964 ft 208 kts 177°
2026-05-08 14:55 26.58150 -81.78316 14964 ft 208 kts 177°
2026-05-08 14:55 26.56716 -81.78104 14963 ft 208 kts 177°
2026-05-08 14:55 26.55312 -81.77644 14970 ft 214 kts 158°
2026-05-08 14:56 26.54083 -81.76678 14977 ft 219 kts 139°
2026-05-08 14:56 26.53175 -81.75297 14982 ft 224 kts 119°
2026-05-08 14:56 26.52714 -81.73639 14979 ft 226 kts 98°
2026-05-08 14:56 26.52584 -81.71885 14981 ft 226 kts 95°
2026-05-08 14:57 26.52449 -81.70130 14982 ft 227 kts 95°
2026-05-08 14:57 26.52312 -81.68376 14983 ft 227 kts 95°
2026-05-08 14:57 26.52182 -81.66620 14980 ft 227 kts 95°
2026-05-08 14:57 26.52050 -81.64865 14975 ft 227 kts 94°
2026-05-08 14:58 26.51915 -81.63104 14976 ft 227 kts 95°
2026-05-08 14:58 26.51783 -81.61368 14973 ft 228 kts 95°
2026-05-08 14:58 26.51648 -81.59585 14969 ft 227 kts 95°
2026-05-08 14:58 26.51517 -81.57854 14968 ft 227 kts 95°
2026-05-08 14:59 26.51382 -81.56099 14953 ft 227 kts 95°
2026-05-08 14:59 26.51112 -81.52593 14952 ft 227 kts 95°
2026-05-08 14:59 26.50979 -81.50837 14949 ft 226 kts 95°
2026-05-08 15:00 26.50845 -81.49091 14946 ft 226 kts 95°
2026-05-08 15:00 26.50710 -81.47335 14944 ft 227 kts 95°
2026-05-08 15:00 26.50574 -81.45580 14944 ft 227 kts 95°
2026-05-08 15:00 26.50438 -81.43827 14945 ft 227 kts 95°
2026-05-08 15:01 26.50303 -81.42069 14947 ft 227 kts 95°
2026-05-08 15:01 26.50167 -81.40310 14946 ft 228 kts 95°
2026-05-08 15:01 26.50030 -81.38553 14944 ft 227 kts 95°
2026-05-08 15:01 26.49894 -81.36797 14944 ft 227 kts 95°
2026-05-08 15:02 26.49756 -81.35036 14942 ft 227 kts 95°
2026-05-08 15:02 26.49620 -81.33281 14942 ft 227 kts 95°
2026-05-08 15:02 26.49484 -81.31525 14941 ft 227 kts 95°
2026-05-08 15:02 26.49347 -81.29774 14940 ft 227 kts 95°
2026-05-08 15:03 26.49211 -81.28025 14942 ft 227 kts 95°
2026-05-08 15:03 26.49072 -81.26269 14943 ft 227 kts 95°
2026-05-08 15:03 26.48934 -81.24513 14942 ft 227 kts 95°
2026-05-08 15:03 26.48797 -81.22762 14941 ft 227 kts 95°
2026-05-08 15:04 26.48659 -81.21008 14942 ft 227 kts 95°
2026-05-08 15:04 26.48518 -81.19250 14942 ft 227 kts 95°
2026-05-08 15:04 26.48382 -81.17498 14942 ft 227 kts 95°
2026-05-08 15:04 26.48242 -81.15743 14943 ft 227 kts 95°
2026-05-08 15:05 26.48104 -81.13984 14942 ft 227 kts 95°
2026-05-08 15:05 26.47964 -81.12232 14942 ft 227 kts 95°
2026-05-08 15:05 26.47825 -81.10477 14943 ft 227 kts 95°
2026-05-08 15:05 26.47685 -81.08745 14941 ft 227 kts 95°
2026-05-08 15:06 26.47544 -81.06967 14942 ft 227 kts 95°
2026-05-08 15:06 26.47405 -81.05231 14943 ft 227 kts 95°
2026-05-08 15:06 26.47265 -81.03481 14941 ft 227 kts 95°
2026-05-08 15:06 26.47125 -81.01728 14942 ft 227 kts 95°
2026-05-08 15:07 26.46984 -80.99971 14938 ft 227 kts 95°
2026-05-08 15:07 26.46842 -80.98216 14939 ft 227 kts 95°
2026-05-08 15:07 26.46702 -80.96462 14939 ft 227 kts 95°
2026-05-08 15:07 26.46560 -80.94706 14941 ft 227 kts 95°
2026-05-08 15:08 26.46418 -80.92950 14944 ft 227 kts 95°
2026-05-08 15:08 26.46324 -80.91791 14942 ft 227 kts 95°
2026-05-08 15:08 26.46135 -80.89446 14940 ft 227 kts 95°
2026-05-08 15:08 26.45992 -80.87694 14938 ft 226 kts 95°
2026-05-08 15:09 26.45850 -80.85944 14940 ft 226 kts 95°
2026-05-08 15:09 26.45708 -80.84193 14940 ft 226 kts 95°
2026-05-08 15:09 26.45565 -80.82448 14939 ft 226 kts 95°
2026-05-08 15:09 26.45423 -80.80700 14940 ft 226 kts 95°
2026-05-08 15:10 26.45280 -80.78955 14939 ft 227 kts 95°
2026-05-08 15:10 26.45137 -80.77205 14940 ft 227 kts 95°
2026-05-08 15:10 26.44991 -80.75454 14937 ft 226 kts 95°
2026-05-08 15:10 26.44847 -80.73705 14936 ft 226 kts 95°
2026-05-08 15:11 26.44707 -80.71957 14934 ft 226 kts 95°
2026-05-08 15:11 26.44562 -80.70206 14935 ft 226 kts 95°
2026-05-08 15:11 26.44416 -80.68462 14934 ft 226 kts 95°
2026-05-08 15:11 26.44273 -80.66721 14934 ft 226 kts 95°
2026-05-08 15:12 26.44130 -80.64970 14941 ft 226 kts 95°
2026-05-08 15:12 26.43986 -80.63228 14939 ft 226 kts 95°
2026-05-08 15:12 26.43840 -80.61484 14938 ft 226 kts 95°
2026-05-08 15:12 26.43694 -80.59742 14939 ft 226 kts 95°
2026-05-08 15:13 26.43548 -80.57997 14937 ft 226 kts 95°
2026-05-08 15:13 26.43404 -80.56274 14935 ft 226 kts 95°
2026-05-08 15:13 26.43259 -80.54529 14937 ft 226 kts 95°
2026-05-08 15:13 26.43115 -80.52788 14936 ft 226 kts 94°
2026-05-08 15:14 26.42969 -80.51041 14937 ft 226 kts 95°
2026-05-08 15:14 26.42822 -80.49303 14939 ft 224 kts 94°
2026-05-08 15:15 26.42808 -80.49145 14945 ft 222 kts 95°
2026-05-08 15:16 26.42688 -80.47850 14955 ft 182 kts 95°
2026-05-08 15:16 26.42577 -80.46528 14936 ft 164 kts 94°
2026-05-08 15:16 26.42483 -80.45294 14935 ft 156 kts 94°
2026-05-08 15:16 26.42381 -80.44104 14810 ft 151 kts 96°
2026-05-08 15:17 26.42273 -80.42945 14491 ft 152 kts 95°
2026-05-08 15:17 26.42170 -80.41758 14111 ft 155 kts 95°
2026-05-08 15:17 26.42069 -80.40563 13719 ft 154 kts 95°
2026-05-08 15:17 26.41969 -80.39378 13295 ft 153 kts 95°
2026-05-08 15:18 26.41869 -80.38208 12875 ft 151 kts 95°
2026-05-08 15:18 26.41774 -80.37061 12532 ft 145 kts 95°
2026-05-08 15:18 26.41683 -80.35955 12209 ft 141 kts 96°
2026-05-08 15:18 26.41595 -80.34898 12021 ft 134 kts 95°
2026-05-08 15:19 26.41515 -80.33824 11937 ft 141 kts 95°
2026-05-08 15:19 26.41425 -80.32739 11917 ft 140 kts 95°
2026-05-08 15:19 26.41331 -80.31657 11894 ft 140 kts 95°
2026-05-08 15:19 26.41238 -80.30578 11871 ft 140 kts 95°
2026-05-08 15:20 26.41146 -80.29498 11848 ft 140 kts 95°
2026-05-08 15:20 26.41054 -80.28417 11823 ft 140 kts 95°
2026-05-08 15:20 26.40961 -80.27335 11799 ft 140 kts 95°
2026-05-08 15:20 26.40867 -80.26255 11775 ft 139 kts 95°
2026-05-08 15:21 26.40774 -80.25180 11752 ft 140 kts 95°
2026-05-08 15:21 26.40682 -80.24105 11727 ft 139 kts 95°
2026-05-08 15:21 26.40591 -80.23043 11701 ft 139 kts 95°
2026-05-08 15:21 26.40500 -80.21972 11680 ft 140 kts 95°
2026-05-08 15:22 26.40406 -80.20894 11656 ft 140 kts 95°
2026-05-08 15:22 26.40313 -80.19816 11631 ft 139 kts 95°
2026-05-08 15:22 26.40221 -80.18742 11607 ft 139 kts 95°
2026-05-08 15:22 26.40129 -80.17671 11582 ft 139 kts 95°
2026-05-08 15:23 26.40037 -80.16600 11560 ft 139 kts 95°
2026-05-08 15:23 26.39944 -80.15527 11531 ft 139 kts 95°
2026-05-08 15:23 26.39852 -80.14458 11510 ft 139 kts 95°
2026-05-08 15:23 26.39760 -80.13384 11484 ft 139 kts 95°
2026-05-08 15:24 26.39668 -80.12310 11456 ft 139 kts 95°
2026-05-08 15:24 26.39570 -80.11213 11311 ft 146 kts 96°
2026-05-08 15:24 26.39467 -80.10014 11074 ft 168 kts 95°
2026-05-08 15:24 26.39345 -80.08650 10785 ft 182 kts 96°
2026-05-08 15:25 26.39215 -80.07225 10507 ft 186 kts 96°
2026-05-08 15:25 26.39092 -80.05783 10246 ft 186 kts 96°
2026-05-08 15:25 26.38968 -80.04351 10001 ft 185 kts 97°
2026-05-08 15:25 26.38845 -80.02925 9746 ft 183 kts 96°
2026-05-08 15:26 26.38724 -80.01525 9514 ft 181 kts 96°
2026-05-08 15:26 26.38481 -80.00169 9273 ft 178 kts 113°
2026-05-08 15:26 26.37788 -79.99048 9041 ft 175 kts 136°
2026-05-08 15:26 26.36776 -79.98331 8807 ft 172 kts 159°
2026-05-08 15:27 26.35618 -79.98107 8588 ft 169 kts 181°
2026-05-08 15:27 26.34454 -79.98286 8373 ft 169 kts 189°
2026-05-08 15:27 26.33296 -79.98483 8151 ft 168 kts 189°
2026-05-08 15:27 26.32138 -79.98674 7924 ft 168 kts 189°
2026-05-08 15:28 26.30981 -79.98867 7703 ft 168 kts 189°
2026-05-08 15:28 26.29825 -79.99058 7480 ft 168 kts 189°
2026-05-08 15:28 26.28668 -79.99250 7258 ft 168 kts 189°
2026-05-08 15:28 26.27508 -79.99443 7035 ft 168 kts 189°
2026-05-08 15:29 26.26363 -79.99635 6811 ft 169 kts 188°
2026-05-08 15:29 26.25186 -79.99827 6589 ft 169 kts 188°
2026-05-08 15:29 26.24039 -80.00016 6361 ft 169 kts 189°
2026-05-08 15:29 26.22883 -80.00205 6136 ft 167 kts 188°
2026-05-08 15:30 26.21736 -80.00392 5914 ft 166 kts 189°
2026-05-08 15:30 26.20595 -80.00585 5693 ft 165 kts 189°
2026-05-08 15:30 26.19459 -80.00775 5475 ft 165 kts 188°
2026-05-08 15:30 26.18326 -80.00964 5255 ft 164 kts 189°
2026-05-08 15:31 26.17141 -80.01157 5025 ft 181 kts 188°
2026-05-08 15:31 26.15853 -80.01370 4774 ft 192 kts 189°
2026-05-08 15:31 26.14513 -80.01596 4510 ft 197 kts 189°
2026-05-08 15:31 26.13143 -80.01826 4235 ft 200 kts 190°
2026-05-08 15:32 26.11758 -80.02057 3976 ft 202 kts 189°
2026-05-08 15:32 26.10364 -80.02289 3708 ft 203 kts 189°
2026-05-08 15:32 26.08962 -80.02522 3439 ft 204 kts 189°
2026-05-08 15:32 26.07550 -80.02756 3165 ft 205 kts 189°
2026-05-08 15:33 26.06614 -80.02911 2983 ft 206 kts 189°
2026-05-08 15:33 26.04714 -80.03227 2621 ft 207 kts 188°
2026-05-08 15:33 26.03768 -80.03384 2440 ft 208 kts 188°
2026-05-08 15:33 26.02336 -80.03621 2158 ft 208 kts 188°
2026-05-08 15:34 26.00908 -80.03856 1961 ft 205 kts 187°
2026-05-08 15:34 25.99126 -80.04334 1945 ft 194 kts 206°
2026-05-08 15:34 25.98335 -80.04784 1945 ft 191 kts 207°
2026-05-08 15:34 25.97143 -80.05413 1950 ft 188 kts 205°
2026-05-08 15:35 25.95966 -80.06024 1951 ft 186 kts 205°
2026-05-08 15:35 25.94797 -80.06642 1950 ft 185 kts 206°
2026-05-08 15:35 25.93641 -80.07266 1950 ft 185 kts 208°
2026-05-08 15:35 25.92709 -80.08218 1946 ft 183 kts 236°
2026-05-08 15:36 25.92201 -80.09495 1948 ft 181 kts 260°
2026-05-08 15:36 25.92109 -80.10885 1949 ft 181 kts 270°
2026-05-08 15:36 25.92049 -80.12271 1926 ft 184 kts 270°
2026-05-08 15:36 25.92042 -80.13710 1748 ft 189 kts 268°
2026-05-08 15:37 25.91912 -80.15083 1676 ft 164 kts 268°
2026-05-08 15:37 25.91854 -80.16244 1642 ft 134 kts 271°
2026-05-08 15:37 25.91820 -80.17143 1634 ft 102 kts 270°
2026-05-08 15:37 25.91786 -80.17854 1639 ft 83 kts 271°
2026-05-08 15:38 25.91741 -80.18481 1547 ft 86 kts 266°
2026-05-08 15:38 25.91686 -80.19187 1369 ft 97 kts 269°
2026-05-08 15:38 25.91644 -80.19943 1211 ft 100 kts 270°
2026-05-08 15:38 25.91605 -80.20717 1093 ft 99 kts 268°
2026-05-08 15:39 25.91574 -80.21473 983 ft 99 kts 268°
2026-05-08 15:39 25.91551 -80.22253 777 ft 102 kts 270°
2026-05-08 15:39 25.91522 -80.23040 608 ft 103 kts 269°
2026-05-08 15:39 25.91488 -80.23805 566 ft 95 kts 271°
2026-05-08 15:40 25.91461 -80.24563 379 ft 101 kts 271°
2026-05-08 15:40 25.91431 -80.25322 261 ft 94 kts 270°
2026-05-08 15:40 25.91403 -80.26054 112 ft 95 kts 269°
2026-05-08 15:40 25.91361 -80.26765 28 ft 88 kts 270°
2026-05-08 15:41 25.91342 -80.27374 13 ft 65 kts 270°
2026-05-08 15:41 25.91313 -80.27736 9 ft 23 kts 264°
2026-05-08 15:41 25.91258 -80.27778 10 ft 12 kts 178°
2026-05-08 15:41 25.91206 -80.27778 11 ft 11 kts 180°
2026-05-08 15:42 25.91153 -80.27778 11 ft 0 kts 192°
2026-05-08 15:42 25.91152 -80.27778 11 ft 0 kts 193°
2026-05-08 15:42 25.91127 -80.27782 11 ft 8 kts 179°
2026-05-08 15:42 25.91040 -80.27780 11 ft 16 kts 182°
2026-05-08 15:43 25.90986 -80.27752 11 ft 9 kts 102°
2026-05-08 15:43 25.90985 -80.27671 11 ft 8 kts 89°
2026-05-08 15:43 25.90982 -80.27605 11 ft 9 kts 104°
2026-05-08 15:43 25.90959 -80.27541 11 ft 7 kts 73°
2026-05-08 15:44 25.90992 -80.27516 11 ft 6 kts 29°
2026-05-08 15:44 25.91032 -80.27487 11 ft 8 kts 29°
2026-05-08 15:44 25.91078 -80.27456 11 ft 8 kts 27°
2026-05-08 15:44 25.91127 -80.27423 11 ft 8 kts 36°
2026-05-08 15:45 25.91144 -80.27375 11 ft 7 kts 88°
2026-05-08 15:45 25.91147 -80.27310 11 ft 9 kts 87°
2026-05-08 15:45 25.91151 -80.27235 11 ft 10 kts 88°
2026-05-08 15:45 25.91155 -80.27151 11 ft 11 kts 88°
2026-05-08 15:46 25.91159 -80.27063 11 ft 11 kts 85°
2026-05-08 15:46 25.91127 -80.27022 11 ft 8 kts 182°
2026-05-08 15:46 25.91061 -80.27016 11 ft 8 kts 133°
2026-05-08 15:46 25.91057 -80.26953 11 ft 9 kts 89°
2026-05-08 15:47 25.91069 -80.26909 11 ft 2 kts 26°
2026-05-08 15:47 25.91082 -80.26907 11 ft 0 kts 352°